Notices

What's New in latest Release from April 7th, 2021:

- Updated Glossary, including Speed of Maximum Gust, and Total Hourly Precipitation

- Updated national and regional climate services offices contacts and prices information

- Addition of station inventory lists for 1981-2010, 1971-2000, and 1961-1990 Normals.

If you haven't already, please take our survey and provide feedback about our website: https://eccc.sondage-survey.ca/f/LanguageSelection.aspx?s=442ca660-fcf1-47c0-95a9-59707d6fd709

Hourly Data Report for March 03, 2021

NANAIMO A
BRITISH COLUMBIA
Current Station Operator: NAVCAN

49°03'16.000" N
123°52'12.000" W
28.00 m
1025365
YCD

Download Data

Hourly Data (March 2021)
Hourly Data Report for March 3, 2021
TIME
LST
Temp Definition
°C
Dew Point Definition
°C
Rel Hum Definition
%
Precip. Amount Definition
mm

Wind Dir Definition
10's deg

Wind Spd Definition
km/h
Visibility Definition
km
Stn Press Definition
kPa
Hmdx Definition


Wind Chill Definition


Weather Definition


00:00 3.2 -0.3 78 LegendMM 19 7 LegendMM 100.96     LegendNANA
01:00 1.9 0.4 90 LegendMM 0 1 LegendMM 100.92     LegendNANA
02:00 2.5 0.0 84 LegendMM 22 3 LegendMM 100.92     LegendNANA
03:00 2.1 -0.7 82 LegendMM 26 3 LegendMM 100.87     LegendNANA
04:00 1.9 -0.3 85 LegendMM 26 8 LegendMM 100.81     LegendNANA
05:00 1.9 -0.4 85 LegendMM 25 7 LegendMM 100.76     LegendNANA
06:00 1.9 0.1 88 LegendMM 24 3 LegendMM 100.74     LegendNANA
07:00 2.0 0.2 88 LegendMM 28 6 LegendMM 100.73     LegendNANA
08:00 2.8 0.2 83 LegendMM 26 5 LegendMM 100.73     LegendNANA
09:00 3.8 0.8 81 LegendMM 30 4 LegendMM 100.74     LegendNANA
10:00 6.1 0.9 69 LegendMM 5 5 LegendMM 100.75     LegendNANA
11:00 6.9 1.2 67 LegendMM 11 12 LegendMM 100.72     LegendNANA
12:00 8.0 0.8 60 LegendMM 14 10 LegendMM 100.69     LegendNANA
13:00 9.1 1.4 58 LegendMM 13 9 LegendMM 100.64     LegendNANA
14:00 9.5 1.6 58 LegendMM 8 13 LegendMM 100.59     LegendNANA
15:00 9.0 1.4 59 LegendMM 9 12 LegendMM 100.57     LegendNANA
16:00 9.5 1.4 57 LegendMM 10 8 LegendMM 100.56     LegendNANA
17:00 9.0 1.0 57 LegendMM 21 7 LegendMM 100.54     LegendNANA
18:00 7.1 1.8 69 LegendMM 21 1 LegendMM 100.54     LegendNANA
19:00 3.5 1.0 84 LegendMM 15 3 LegendMM 100.57     LegendNANA
20:00 3.6 0.9 82 LegendMM 24 7 LegendMM 100.59     LegendNANA
21:00 2.6 0.5 86 LegendMM 23 4 LegendMM 100.63     LegendNANA
22:00 1.1 0.6 96 LegendMM 23 4 LegendMM 100.67     LegendNANA
23:00 0.8 -0.1 93 LegendMM 0 1 LegendMM 100.67     LegendNANA

Notes on Data Quality.

Legend

  • E = Estimated
  • M = Missing
  • NA = Not Available*
  • [empty] = Indicates an unobserved value
Date modified: